Torna al catalogo

STARLINK-5113

AttivoComunicazioniVLEO
NORAD 53988·PAYLOAD·🇺🇸 United States

Lanciato Oct 5, 2022 da Vandenberg Space Force Base

Loading…

Prossimi Passaggi (prossime 24 ore)

TLE

AggiornatoSource: CelesTrak SupGP

Epoca: Sep 14, 2026, 20:45 UTC

1 53988C 22125AA  26257.86506944  .00020946  00000+0  61895-3 0  2578
2 53988  53.1600  78.0666 0001356  80.7901 143.7374 15.34375966    12

Traccia STARLINK-5113 in tempo reale con AllMySat

Download on the App Store